Regional Weather Roundup
Issued by NWS

Home | Current Version | Previous Version | Graphics & Text | Print | Product List | Glossary On
Versions: 1 2 3 4 5 6 7 8 9 10 11 12 13 14 15 16 17 18 19 20 21 22 23 24 25 26 27 28 29 30 31 32 33 34 35 36 37 38 39 40 41 42 43 44 45 46 47 48 49 50
846
ASUS43 KFSD 241110
RWRSD

WEATHER ROUNDUP FOR SOUTH DAKOTA
NATIONAL WEATHER SERVICE SIOUX FALLS SD
600 AM CDT FRI MAR 24 2017

NOTE: "FAIR" INDICATES FEW OR NO CLOUDS BELOW 12,000 FEET WITH NO
SIGNIFICANT WEATHER AND/OR OBSTRUCTIONS TO VISIBILITY.


SDZ001>005-009-010-012>017-241200-
NORTHWEST AND NORTH CENTRAL SOUTH DAKOTA

CITY           SKY/WX    TMP DP  RH WIND       PRES   REMARKS
BUFFALO          N/A     36  33  89 E3        29.95R
FAITH            N/A     37  37 100 W9        30.00R
MOBRIDGE       PTCLDY    35  31  85 NW7       29.97R WCI  29
$$

SDZ012>016-024>037-041>051-057-063-072>074-241200-
SOUTHWEST AND SOUTH CENTRAL SOUTH DAKOTA

CITY           SKY/WX    TMP DP  RH WIND       PRES   REMARKS
RAPID CTY ARPT CLOUDY    43  37  79 N7        30.02R
PIERRE         CLOUDY    41  36  82 N14       29.98R
CUSTER         CLOUDY    37  31  78 VRB5      30.01R
ELLSWORTH AFB  CLOUDY    43  39  87 NW6       30.02
PHILIP         CLOUDY    40  37  89 N10       30.01R
PINE RIDGE     CLOUDY    40  37  89 N10       30.00R
SPEARFISH      FAIR      37  36  93 W7        30.04R
WINNER         CLOUDY    42  38  85 N10       29.93R
$$

SDZ004>011-016>023-039-040-241200-
NORTHEAST SOUTH DAKOTA

CITY           SKY/WX    TMP DP  RH WIND       PRES   REMARKS
ABERDEEN       CLOUDY    35  32  88 N9        29.99R FOG     WCI  28
WATERTOWN      CLOUDY    33  33 100 N12       29.90R FOG     WCI  24
BROOKINGS      CLOUDY    35  33  92 N10       29.87R WCI  27
SISSETON         N/A     34  34 100 N9        29.95R WCI  27
$$

SDZ017-020-022-023-036>040-048>070-241200-
SOUTHEAST SOUTH DAKOTA

CITY           SKY/WX    TMP DP  RH WIND       PRES   REMARKS
SIOUX FALLS    CLOUDY    39  37  92 N10       29.85R
HURON          CLOUDY    37  36  96 N15       29.92R
CHAMBERLAIN    CLOUDY    42  38  86 NW14      29.94R
MITCHELL       CLOUDY    39  37  92 N14       29.91R
YANKTON        CLOUDY    43  39  87 NW17      29.86R
$$

ABBREVIATIONS USED IN REMARKS
   TC - TEMPERATURE IN CELSIUS
  WCI - WIND CHILL INDEX
   HX - HEAT INDEX
  VSB - VISIBILITY





USA.gov is the U.S. government's official web portal to all federal, state and local government web resources and services.